Time,TemperatureF,DewpointF,PressureIn,WindDirection,WindDirectionDegrees,WindSpeedMPH,WindSpeedGustMPH,Humidity,HourlyPrecipIn,Conditions,Clouds,dailyrainin,SoftwareType,DateUTC
2013-03-06 00:00:00,37.6,26.5,30.15,North,1,0.0,0.0,64,0.00,CLR,SKC,0.00,WeatherDisplay:10.37,2013-03-05 23:00:00,
2013-03-06 00:05:00,37.4,26.3,30.15,North,1,0.0,0.0,64,0.00,CLR,SKC,0.00,WeatherDisplay:10.37,2013-03-05 23:05:00,
2013-03-06 00:10:00,37.2,26.5,30.15,North,1,0.0,0.0,65,0.00,CLR,SKC,0.00,WeatherDisplay:10.37,2013-03-05 23:10:00,
2013-03-06 00:15:00,37.2,26.5,30.15,North,1,0.0,0.0,65,0.00,CLR,SKC,0.00,WeatherDisplay:10.37,2013-03-05 23:15:00,
2013-03-06 00:20:00,37.2,26.5,30.15,North,1,0.0,0.0,65,0.00,CLR,SKC,0.00,WeatherDisplay:10.37,2013-03-05 23:20:00,
2013-03-06 00:25:00,37.2,26.5,30.15,North,1,0.0,0.0,65,0.00,CLR,SKC,0.00,WeatherDisplay:10.37,2013-03-05 23:25:00,
2013-03-06 00:30:00,37.2,26.5,30.15,North,1,0.0,0.0,65,0.00,CLR,SKC,0.00,WeatherDisplay:10.37,2013-03-05 23:30:00,
2013-03-06 00:35:00,37.2,26.5,30.15,North,1,0.0,0.0,65,0.00,CLR,SKC,0.00,WeatherDisplay:10.37,2013-03-05 23:35:00,
2013-03-06 00:40:00,37.2,26.9,30.15,North,1,0.0,0.0,66,0.00,CLR,SKC,0.00,WeatherDisplay:10.37,2013-03-05 23:40:00,
2013-03-06 00:45:00,37.2,26.9,30.15,North,1,0.0,0.0,66,0.00,CLR,SKC,0.00,WeatherDisplay:10.37,2013-03-05 23:45:00,
2013-03-06 00:50:00,37.2,26.9,30.14,North,1,0.0,0.0,66,0.00,CLR,SKC,0.00,WeatherDisplay:10.37,2013-03-05 23:50:00,
2013-03-06 00:55:00,37.2,26.9,30.15,North,1,0.0,0.0,66,0.00,CLR,SKC,0.00,WeatherDisplay:10.37,2013-03-05 23:55:00,
2013-03-06 01:00:00,37.2,26.9,30.15,North,1,0.0,0.0,66,0.00,CLR,SKC,0.00,WeatherDisplay:10.37,2013-03-06 00:00:00,
2013-03-06 01:05:00,37.2,26.9,30.15,North,1,0.0,0.0,66,0.00,CLR,SKC,0.00,WeatherDisplay:10.37,2013-03-06 00:05:00,
2013-03-06 01:10:00,37.2,27.3,30.14,North,1,0.0,0.0,67,0.00,CLR,SKC,0.00,WeatherDisplay:10.37,2013-03-06 00:10:00,
2013-03-06 01:15:00,37.2,27.3,30.15,North,1,0.0,0.0,67,0.00,CLR,SKC,0.00,WeatherDisplay:10.37,2013-03-06 00:15:00,
2013-03-06 01:20:00,37.2,27.3,30.15,North,1,0.0,0.0,67,0.00,CLR,SKC,0.00,WeatherDisplay:10.37,2013-03-06 00:20:00,
2013-03-06 01:25:00,37.2,27.3,30.14,North,1,0.0,0.0,67,0.00,CLR,SKC,0.00,WeatherDisplay:10.37,2013-03-06 00:25:00,
2013-03-06 01:30:00,37.2,27.6,30.14,North,1,0.0,0.0,68,0.00,CLR,SKC,0.00,WeatherDisplay:10.37,2013-03-06 00:30:00,
2013-03-06 01:35:00,37.2,27.6,30.14,North,1,0.0,0.0,68,0.00,CLR,SKC,0.00,WeatherDisplay:10.37,2013-03-06 00:35:00,
2013-03-06 01:40:00,37.0,27.5,30.15,North,1,0.0,0.0,68,0.00,CLR,SKC,0.00,WeatherDisplay:10.37,2013-03-06 00:40:00,
2013-03-06 01:45:00,37.0,27.5,30.14,North,1,0.0,0.0,68,0.00,CLR,SKC,0.00,WeatherDisplay:10.37,2013-03-06 00:45:00,
2013-03-06 01:50:00,37.0,27.5,30.13,North,1,0.0,0.0,68,0.00,CLR,SKC,0.00,WeatherDisplay:10.37,2013-03-06 00:50:00,
2013-03-06 01:55:00,36.9,27.3,30.13,North,1,0.0,0.0,68,0.00,CLR,SKC,0.00,WeatherDisplay:10.37,2013-03-06 00:55:00,
2013-03-06 02:00:00,36.9,27.6,30.13,North,1,0.0,0.0,69,0.00,CLR,SKC,0.00,WeatherDisplay:10.37,2013-03-06 01:00:00,
2013-03-06 02:05:00,36.9,27.6,30.13,North,1,0.0,0.0,69,0.00,CLR,SKC,0.00,WeatherDisplay:10.37,2013-03-06 01:05:00,
2013-03-06 02:10:00,36.7,27.5,30.12,North,1,0.0,0.0,69,0.00,CLR,SKC,0.00,WeatherDisplay:10.37,2013-03-06 01:10:00,
2013-03-06 02:15:00,36.5,27.3,30.12,North,1,0.0,0.0,69,0.00,CLR,SKC,0.00,WeatherDisplay:10.37,2013-03-06 01:15:00,
2013-03-06 02:20:00,36.5,27.3,30.13,North,1,0.0,0.0,69,0.00,CLR,SKC,0.00,WeatherDisplay:10.37,2013-03-06 01:20:00,
2013-03-06 02:25:00,36.3,27.5,30.13,North,1,0.0,0.0,70,0.00,CLR,SKC,0.00,WeatherDisplay:10.37,2013-03-06 01:25:00,
2013-03-06 02:30:00,36.1,27.3,30.12,North,1,0.0,0.0,70,0.00,CLR,SKC,0.00,WeatherDisplay:10.37,2013-03-06 01:30:00,
2013-03-06 02:35:00,36.1,27.3,30.12,North,1,0.0,0.0,70,0.00,CLR,SKC,0.00,WeatherDisplay:10.37,2013-03-06 01:35:00,
2013-03-06 02:40:00,36.1,27.3,30.12,North,1,0.0,0.0,70,0.00,CLR,SKC,0.00,WeatherDisplay:10.37,2013-03-06 01:40:00,
2013-03-06 02:45:00,35.8,26.9,30.12,North,1,0.0,0.0,70,0.00,CLR,SKC,0.00,WeatherDisplay:10.37,2013-03-06 01:45:00,
2013-03-06 02:50:00,35.8,26.9,30.12,North,1,0.0,0.0,70,0.00,CLR,SKC,0.00,WeatherDisplay:10.37,2013-03-06 01:50:00,
2013-03-06 02:55:00,35.4,26.6,30.12,North,1,0.0,0.0,70,0.00,CLR,SKC,0.00,WeatherDisplay:10.37,2013-03-06 01:55:00,
2013-03-06 03:00:00,35.4,26.9,30.11,North,1,0.0,0.0,71,0.00,CLR,SKC,0.00,WeatherDisplay:10.37,2013-03-06 02:00:00,
2013-03-06 03:05:00,35.2,26.8,30.11,North,1,0.0,0.0,71,0.00,CLR,SKC,0.00,WeatherDisplay:10.37,2013-03-06 02:05:00,
2013-03-06 03:10:00,35.1,26.6,30.11,North,1,0.0,0.0,71,0.00,CLR,SKC,0.00,WeatherDisplay:10.37,2013-03-06 02:10:00,
2013-03-06 03:15:00,34.9,26.8,30.11,North,1,0.0,0.0,72,0.00,CLR,SKC,0.00,WeatherDisplay:10.37,2013-03-06 02:15:00,
2013-03-06 03:20:00,34.9,26.8,30.11,North,1,0.0,0.0,72,0.00,CLR,SKC,0.00,WeatherDisplay:10.37,2013-03-06 02:20:00,
2013-03-06 03:25:00,34.9,26.8,30.10,North,1,0.0,0.0,72,0.00,CLR,SKC,0.00,WeatherDisplay:10.37,2013-03-06 02:25:00,
2013-03-06 03:30:00,34.9,27.1,30.10,North,1,0.0,0.0,73,0.00,CLR,SKC,0.00,WeatherDisplay:10.37,2013-03-06 02:30:00,
2013-03-06 03:35:00,34.9,27.1,30.11,North,1,0.0,0.0,73,0.00,CLR,SKC,0.00,WeatherDisplay:10.37,2013-03-06 02:35:00,
2013-03-06 03:40:00,34.7,26.9,30.11,North,1,0.0,0.0,73,0.00,CLR,SKC,0.00,WeatherDisplay:10.37,2013-03-06 02:40:00,
2013-03-06 03:45:00,34.7,26.9,30.11,North,1,0.0,0.0,73,0.00,CLR,SKC,0.00,WeatherDisplay:10.37,2013-03-06 02:45:00,
2013-03-06 03:50:00,34.9,27.1,30.11,North,1,0.0,0.0,73,0.00,CLR,SKC,0.00,WeatherDisplay:10.37,2013-03-06 02:50:00,
2013-03-06 03:55:00,34.9,27.1,30.10,North,1,0.0,0.0,73,0.00,CLR,SKC,0.00,WeatherDisplay:10.37,2013-03-06 02:55:00,
2013-03-06 04:00:00,35.2,27.8,30.11,North,1,0.0,0.0,74,0.00,CLR,SKC,0.00,WeatherDisplay:10.37,2013-03-06 03:00:00,
2013-03-06 04:05:00,35.2,27.8,30.11,North,1,0.0,0.0,74,0.00,CLR,SKC,0.00,WeatherDisplay:10.37,2013-03-06 03:05:00,
2013-03-06 04:10:00,35.2,27.8,30.10,North,1,0.0,0.0,74,0.00,CLR,SKC,0.00,WeatherDisplay:10.37,2013-03-06 03:10:00,
2013-03-06 04:15:00,35.2,27.8,30.11,North,1,0.0,0.0,74,0.00,CLR,SKC,0.00,WeatherDisplay:10.37,2013-03-06 03:15:00,
2013-03-06 04:20:00,35.2,27.8,30.11,North,1,0.0,0.0,74,0.00,CLR,SKC,0.00,WeatherDisplay:10.37,2013-03-06 03:20:00,
2013-03-06 04:25:00,35.2,27.8,30.10,North,1,0.0,0.0,74,0.00,CLR,SKC,0.00,WeatherDisplay:10.37,2013-03-06 03:25:00,
2013-03-06 04:30:00,35.4,28.0,30.10,North,1,0.0,0.0,74,0.00,CLR,SKC,0.00,WeatherDisplay:10.37,2013-03-06 03:30:00,
2013-03-06 04:35:00,35.4,28.0,30.10,North,1,0.0,0.0,74,0.00,CLR,SKC,0.00,WeatherDisplay:10.37,2013-03-06 03:35:00,
2013-03-06 04:40:00,35.4,28.0,30.09,North,1,0.0,0.0,74,0.00,CLR,SKC,0.00,WeatherDisplay:10.37,2013-03-06 03:40:00,
2013-03-06 04:45:00,35.4,28.3,30.09,North,1,0.0,0.0,75,0.00,CLR,SKC,0.00,WeatherDisplay:10.37,2013-03-06 03:45:00,
2013-03-06 04:50:00,35.4,28.3,30.09,North,1,0.0,0.0,75,0.00,CLR,SKC,0.00,WeatherDisplay:10.37,2013-03-06 03:50:00,
2013-03-06 04:55:00,35.8,28.6,30.09,North,1,0.0,0.0,75,0.00,CLR,SKC,0.00,WeatherDisplay:10.37,2013-03-06 03:55:00,
2013-03-06 05:00:00,35.8,28.6,30.09,North,1,0.0,0.0,75,0.00,CLR,SKC,0.00,WeatherDisplay:10.37,2013-03-06 04:00:00,
2013-03-06 05:05:00,35.8,28.6,30.09,North,1,0.0,0.0,75,0.00,CLR,SKC,0.00,WeatherDisplay:10.37,2013-03-06 04:05:00,
2013-03-06 05:10:00,35.8,28.3,30.09,North,1,0.0,0.0,74,0.00,CLR,SKC,0.00,WeatherDisplay:10.37,2013-03-06 04:10:00,
2013-03-06 05:15:00,35.4,28.0,30.09,North,1,0.0,0.0,74,0.00,CLR,SKC,0.00,WeatherDisplay:10.37,2013-03-06 04:15:00,
2013-03-06 05:20:00,34.9,27.8,30.09,North,1,0.0,0.0,75,0.00,CLR,SKC,0.00,WeatherDisplay:10.37,2013-03-06 04:20:00,
2013-03-06 05:25:00,34.3,27.2,30.10,North,1,0.0,0.0,75,0.00,CLR,SKC,0.00,WeatherDisplay:10.37,2013-03-06 04:25:00,
2013-03-06 05:30:00,34.0,26.9,30.09,North,1,0.0,0.0,75,0.00,CLR,SKC,0.00,WeatherDisplay:10.37,2013-03-06 04:30:00,
2013-03-06 05:35:00,33.8,27.0,30.09,North,1,0.0,0.0,76,0.00,CLR,SKC,0.00,WeatherDisplay:10.37,2013-03-06 04:35:00,
2013-03-06 05:40:00,33.1,26.3,30.09,North,1,0.0,0.0,76,0.00,CLR,SKC,0.00,WeatherDisplay:10.37,2013-03-06 04:40:00,
2013-03-06 05:45:00,32.7,26.0,30.09,North,1,0.0,0.0,76,0.00,CLR,SKC,0.00,WeatherDisplay:10.37,2013-03-06 04:45:00,
2013-03-06 05:50:00,32.2,25.5,30.09,North,1,0.0,0.0,76,0.00,CLR,SKC,0.00,WeatherDisplay:10.37,2013-03-06 04:50:00,
2013-03-06 05:55:00,32.2,25.8,30.08,North,1,0.0,0.0,77,0.00,CLR,SKC,0.00,WeatherDisplay:10.37,2013-03-06 04:55:00,
2013-03-06 06:00:00,32.0,25.6,30.08,North,1,0.0,0.0,77,0.00,CLR,SKC,0.00,WeatherDisplay:10.37,2013-03-06 05:00:00,
2013-03-06 06:05:00,31.8,25.4,30.08,North,1,0.0,0.0,77,0.00,CLR,SKC,0.00,WeatherDisplay:10.37,2013-03-06 05:05:00,
2013-03-06 06:10:00,31.8,25.7,30.08,North,1,0.0,0.0,78,0.00,CLR,SKC,0.00,WeatherDisplay:10.37,2013-03-06 05:10:00,
2013-03-06 06:15:00,31.8,25.7,30.08,North,1,0.0,0.0,78,0.00,CLR,SKC,0.00,WeatherDisplay:10.37,2013-03-06 05:15:00,
2013-03-06 06:20:00,31.8,25.7,30.08,North,1,0.0,0.0,78,0.00,CLR,SKC,0.00,WeatherDisplay:10.37,2013-03-06 05:20:00,
2013-03-06 06:25:00,31.8,25.7,30.08,North,1,0.0,0.0,78,0.00,CLR,SKC,0.00,WeatherDisplay:10.37,2013-03-06 05:25:00,
2013-03-06 06:30:00,31.6,25.9,30.08,North,1,0.0,0.0,79,0.00,CLR,SKC,0.00,WeatherDisplay:10.37,2013-03-06 05:30:00,
2013-03-06 06:35:00,31.8,26.0,30.08,North,1,0.0,0.0,79,0.00,CLR,SKC,0.00,WeatherDisplay:10.37,2013-03-06 05:35:00,
2013-03-06 06:40:00,31.8,26.0,30.08,North,1,0.0,0.0,79,0.00,CLR,SKC,0.00,WeatherDisplay:10.37,2013-03-06 05:40:00,
2013-03-06 06:45:00,31.8,26.0,30.08,North,1,0.0,0.0,79,0.00,CLR,SKC,0.00,WeatherDisplay:10.37,2013-03-06 05:45:00,
2013-03-06 06:50:00,32.0,26.2,30.08,North,1,0.0,0.0,79,0.00,CLR,SKC,0.00,WeatherDisplay:10.37,2013-03-06 05:50:00,
2013-03-06 06:55:00,32.4,26.6,30.08,North,1,0.0,0.0,79,0.00,CLR,SKC,0.00,WeatherDisplay:10.37,2013-03-06 05:55:00,
2013-03-06 07:00:00,32.5,27.1,30.08,North,1,0.0,0.0,80,0.00,CLR,SKC,0.00,WeatherDisplay:10.37,2013-03-06 06:00:00,
2013-03-06 07:05:00,32.9,27.4,30.08,North,1,0.0,0.0,80,0.00,CLR,SKC,0.00,WeatherDisplay:10.37,2013-03-06 06:05:00,
2013-03-06 07:10:00,33.4,27.6,30.08,North,1,0.0,0.0,79,0.00,CLR,SKC,0.00,WeatherDisplay:10.37,2013-03-06 06:10:00,
2013-03-06 07:15:00,33.6,27.8,30.08,North,1,0.0,0.0,79,0.00,CLR,SKC,0.00,WeatherDisplay:10.37,2013-03-06 06:15:00,
2013-03-06 07:20:00,33.6,27.8,30.08,North,1,0.0,0.0,79,0.00,CLR,SKC,0.00,WeatherDisplay:10.37,2013-03-06 06:20:00,
2013-03-06 07:25:00,33.8,28.3,30.08,North,1,0.0,0.0,80,0.00,CLR,SKC,0.00,WeatherDisplay:10.37,2013-03-06 06:25:00,
2013-03-06 07:30:00,33.6,27.8,30.08,North,1,0.0,0.0,79,0.00,CLR,SKC,0.00,WeatherDisplay:10.37,2013-03-06 06:30:00,
2013-03-06 07:35:00,33.6,27.8,30.08,North,1,0.0,0.0,79,0.00,CLR,SKC,0.00,WeatherDisplay:10.37,2013-03-06 06:35:00,
2013-03-06 07:40:00,33.8,28.0,30.09,North,1,0.0,0.0,79,0.00,CLR,SKC,0.00,WeatherDisplay:10.37,2013-03-06 06:40:00,
2013-03-06 07:45:00,33.8,28.0,30.09,North,1,0.0,0.0,79,0.00,CLR,SKC,0.00,WeatherDisplay:10.37,2013-03-06 06:45:00,
2013-03-06 07:50:00,34.2,28.3,30.09,North,1,0.0,0.0,79,0.00,CLR,SKC,0.00,WeatherDisplay:10.37,2013-03-06 06:50:00,
2013-03-06 07:55:00,34.5,28.4,30.08,North,1,0.0,0.0,78,0.00,CLR,SKC,0.00,WeatherDisplay:10.37,2013-03-06 06:55:00,
2013-03-06 08:00:00,34.9,28.7,30.09,North,1,0.0,0.0,78,0.00,CLR,SKC,0.00,WeatherDisplay:10.37,2013-03-06 07:00:00,
2013-03-06 08:05:00,36.1,29.9,30.09,North,1,0.0,0.0,78,0.00,CLR,SKC,0.00,WeatherDisplay:10.37,2013-03-06 07:05:00,
2013-03-06 08:10:00,36.3,30.1,30.09,North,1,0.0,0.0,78,0.00,CLR,SKC,0.00,WeatherDisplay:10.37,2013-03-06 07:10:00,
2013-03-06 08:15:00,37.2,30.7,30.08,North,1,0.0,0.0,77,0.00,CLR,SKC,0.00,WeatherDisplay:10.37,2013-03-06 07:15:00,
2013-03-06 08:20:00,37.9,31.0,30.08,North,1,0.0,0.0,76,0.00,CLR,SKC,0.00,WeatherDisplay:10.37,2013-03-06 07:20:00,
2013-03-06 08:25:00,38.5,31.2,30.08,North,1,0.0,0.0,75,0.00,CLR,SKC,0.00,WeatherDisplay:10.37,2013-03-06 07:25:00,
2013-03-06 08:30:00,38.8,31.6,30.07,North,1,0.0,0.0,75,0.00,CLR,SKC,0.00,WeatherDisplay:10.37,2013-03-06 07:30:00,
2013-03-06 08:35:00,38.8,31.6,30.07,North,1,0.0,0.0,75,0.00,CLR,SKC,0.00,WeatherDisplay:10.37,2013-03-06 07:35:00,
2013-03-06 08:40:00,39.0,31.4,30.07,North,1,0.0,0.0,74,0.00,CLR,SKC,0.00,WeatherDisplay:10.37,2013-03-06 07:40:00,
2013-03-06 08:45:00,39.7,32.1,30.07,North,1,0.0,0.0,74,0.00,CLR,SKC,0.00,WeatherDisplay:10.37,2013-03-06 07:45:00,
2013-03-06 08:50:00,39.9,32.0,30.07,North,1,0.0,0.0,73,0.00,CLR,SKC,0.00,WeatherDisplay:10.37,2013-03-06 07:50:00,
2013-03-06 08:55:00,40.3,32.0,30.06,North,1,0.0,0.0,72,0.00,CLR,SKC,0.00,WeatherDisplay:10.37,2013-03-06 07:55:00,
2013-03-06 09:00:00,40.5,32.1,30.07,North,1,0.0,0.0,72,0.00,CLR,SKC,0.00,WeatherDisplay:10.37,2013-03-06 08:00:00,
2013-03-06 09:05:00,40.8,32.5,30.06,North,1,0.0,0.0,72,0.00,CLR,SKC,0.00,WeatherDisplay:10.37,2013-03-06 08:05:00,
2013-03-06 09:10:00,40.8,32.1,30.06,North,1,0.0,0.0,71,0.00,CLR,SKC,0.00,WeatherDisplay:10.37,2013-03-06 08:10:00,
2013-03-06 09:15:00,41.0,32.3,30.06,North,1,0.0,0.0,71,0.00,CLR,SKC,0.00,WeatherDisplay:10.37,2013-03-06 08:15:00,
2013-03-06 09:20:00,41.2,32.5,30.06,North,1,0.0,0.0,71,0.00,CLR,SKC,0.00,WeatherDisplay:10.37,2013-03-06 08:20:00,
2013-03-06 09:25:00,41.4,32.7,30.06,North,1,0.0,0.0,71,0.00,CLR,SKC,0.00,WeatherDisplay:10.37,2013-03-06 08:25:00,
2013-03-06 09:30:00,41.4,32.7,30.06,North,1,0.0,0.0,71,0.00,CLR,SKC,0.00,WeatherDisplay:10.37,2013-03-06 08:30:00,
2013-03-06 09:35:00,41.7,33.0,30.06,North,1,0.0,0.0,71,0.00,CLR,SKC,0.00,WeatherDisplay:10.37,2013-03-06 08:35:00,
2013-03-06 09:40:00,41.7,32.7,30.06,North,1,0.0,0.0,70,0.00,CLR,SKC,0.00,WeatherDisplay:10.37,2013-03-06 08:40:00,
2013-03-06 09:45:00,41.9,32.8,30.06,North,1,0.0,0.0,70,0.00,CLR,SKC,0.00,WeatherDisplay:10.37,2013-03-06 08:45:00,
2013-03-06 09:50:00,42.1,33.0,30.06,North,1,0.0,0.0,70,0.00,CLR,SKC,0.00,WeatherDisplay:10.37,2013-03-06 08:50:00,
2013-03-06 09:55:00,42.6,33.5,30.06,North,1,0.0,0.0,70,0.00,CLR,SKC,0.00,WeatherDisplay:10.37,2013-03-06 08:55:00,
2013-03-06 10:00:00,43.0,33.9,30.06,North,1,0.0,0.0,70,0.00,CLR,SKC,0.00,WeatherDisplay:10.37,2013-03-06 09:00:00,
2013-03-06 10:05:00,43.3,33.8,30.06,North,1,0.0,0.0,69,0.00,CLR,SKC,0.00,WeatherDisplay:10.37,2013-03-06 09:05:00,
2013-03-06 10:10:00,43.5,34.0,30.06,North,1,0.0,0.0,69,0.00,CLR,SKC,0.00,WeatherDisplay:10.37,2013-03-06 09:10:00,
2013-03-06 10:15:00,43.7,34.2,30.05,North,1,0.0,0.0,69,0.00,CLR,SKC,0.00,WeatherDisplay:10.37,2013-03-06 09:15:00,
2013-03-06 10:20:00,44.2,34.7,30.05,North,1,0.0,0.0,69,0.00,CLR,SKC,0.00,WeatherDisplay:10.37,2013-03-06 09:20:00,
2013-03-06 10:25:00,44.4,34.5,30.05,North,1,0.0,0.0,68,0.00,CLR,SKC,0.00,WeatherDisplay:10.37,2013-03-06 09:25:00,
2013-03-06 10:30:00,44.4,34.5,30.05,North,1,0.0,0.0,68,0.00,CLR,SKC,0.00,WeatherDisplay:10.37,2013-03-06 09:30:00,
2013-03-06 10:35:00,45.0,35.0,30.05,North,1,0.0,0.0,68,0.00,CLR,SKC,0.00,WeatherDisplay:10.37,2013-03-06 09:35:00,
2013-03-06 10:40:00,45.3,35.0,30.04,North,1,0.0,0.0,67,0.00,CLR,SKC,0.00,WeatherDisplay:10.37,2013-03-06 09:40:00,
2013-03-06 10:45:00,45.7,35.3,30.04,North,1,0.0,0.0,67,0.00,CLR,SKC,0.00,WeatherDisplay:10.37,2013-03-06 09:45:00,
2013-03-06 10:50:00,46.8,36.0,30.04,North,1,0.0,0.0,66,0.00,CLR,SKC,0.00,WeatherDisplay:10.37,2013-03-06 09:50:00,
2013-03-06 10:55:00,47.3,35.7,30.04,North,1,0.0,0.0,64,0.00,CLR,SKC,0.00,WeatherDisplay:10.37,2013-03-06 09:55:00,
2013-03-06 11:00:00,47.5,35.9,30.04,North,1,0.0,0.0,64,0.00,CLR,SKC,0.00,WeatherDisplay:10.37,2013-03-06 10:00:00,
2013-03-06 11:05:00,48.0,36.0,30.03,North,1,0.0,0.0,63,0.00,CLR,SKC,0.00,WeatherDisplay:10.37,2013-03-06 10:05:00,
2013-03-06 11:10:00,48.0,36.0,30.03,North,1,0.0,0.0,63,0.00,CLR,SKC,0.00,WeatherDisplay:10.37,2013-03-06 10:10:00,
2013-03-06 11:15:00,48.6,36.5,30.03,North,1,0.0,0.0,63,0.00,CLR,SKC,0.00,WeatherDisplay:10.37,2013-03-06 10:15:00,
2013-03-06 11:20:00,48.9,36.5,30.03,North,1,0.0,0.0,62,0.00,CLR,SKC,0.00,WeatherDisplay:10.37,2013-03-06 10:20:00,
2013-03-06 11:25:00,49.1,36.2,30.02,North,1,0.0,0.0,61,0.00,CLR,SKC,0.00,WeatherDisplay:10.37,2013-03-06 10:25:00,
2013-03-06 11:30:00,49.1,36.2,30.02,North,1,0.0,0.0,61,0.00,CLR,SKC,0.00,WeatherDisplay:10.37,2013-03-06 10:30:00,
2013-03-06 11:35:00,49.1,35.8,30.02,North,1,0.0,0.0,60,0.00,CLR,SKC,0.00,WeatherDisplay:10.37,2013-03-06 10:35:00,
2013-03-06 11:40:00,49.3,36.0,30.02,North,1,0.0,0.0,60,0.00,CLR,SKC,0.00,WeatherDisplay:10.37,2013-03-06 10:40:00,
2013-03-06 11:45:00,49.3,35.5,30.01,North,1,0.0,0.0,59,0.00,CLR,SKC,0.00,WeatherDisplay:10.37,2013-03-06 10:45:00,
2013-03-06 11:50:00,49.6,35.9,30.01,North,1,0.0,0.0,59,0.00,CLR,SKC,0.00,WeatherDisplay:10.37,2013-03-06 10:50:00,
2013-03-06 11:55:00,49.8,36.1,30.01,North,1,0.0,0.0,59,0.00,CLR,SKC,0.00,WeatherDisplay:10.37,2013-03-06 10:55:00,
2013-03-06 12:00:00,50.2,36.4,30.01,North,1,0.0,0.0,59,0.00,CLR,SKC,0.00,WeatherDisplay:10.37,2013-03-06 11:00:00,
2013-03-06 12:05:00,50.5,36.3,30.00,North,1,0.0,0.0,58,0.00,CLR,SKC,0.00,WeatherDisplay:10.37,2013-03-06 11:05:00,
2013-03-06 12:10:00,50.5,36.3,30.01,North,1,0.0,0.0,58,0.00,CLR,SKC,0.00,WeatherDisplay:10.37,2013-03-06 11:10:00,
2013-03-06 12:15:00,50.9,36.2,30.00,North,1,0.0,0.0,57,0.00,CLR,SKC,0.00,WeatherDisplay:10.37,2013-03-06 11:15:00,
2013-03-06 12:20:00,51.4,36.7,29.99,North,1,0.0,0.0,57,0.00,CLR,SKC,0.00,WeatherDisplay:10.37,2013-03-06 11:20:00,
2013-03-06 12:25:00,51.3,36.5,29.99,North,1,0.0,0.0,57,0.00,CLR,SKC,0.00,WeatherDisplay:10.37,2013-03-06 11:25:00,
2013-03-06 12:30:00,51.4,36.7,29.99,North,1,0.0,0.0,57,0.00,CLR,SKC,0.00,WeatherDisplay:10.37,2013-03-06 11:30:00,
2013-03-06 12:35:00,51.4,36.7,29.98,North,1,0.0,0.0,57,0.00,CLR,SKC,0.00,WeatherDisplay:10.37,2013-03-06 11:35:00,
2013-03-06 12:40:00,51.6,36.9,29.98,North,1,0.0,0.0,57,0.00,CLR,SKC,0.00,WeatherDisplay:10.37,2013-03-06 11:40:00,
2013-03-06 12:45:00,51.6,36.9,29.98,North,1,0.0,0.0,57,0.00,CLR,SKC,0.00,WeatherDisplay:10.37,2013-03-06 11:45:00,
2013-03-06 12:50:00,51.8,37.0,29.98,North,1,0.0,0.0,57,0.00,CLR,SKC,0.00,WeatherDisplay:10.37,2013-03-06 11:50:00,
2013-03-06 12:55:00,52.5,37.7,29.97,North,1,0.0,0.0,57,0.00,CLR,SKC,0.00,WeatherDisplay:10.37,2013-03-06 11:55:00,
2013-03-06 13:00:00,52.9,37.6,29.98,North,1,0.0,0.0,56,0.00,CLR,SKC,0.00,WeatherDisplay:10.37,2013-03-06 12:00:00,
2013-03-06 13:05:00,53.8,38.0,29.97,North,1,0.0,0.0,55,0.00,CLR,SKC,0.00,WeatherDisplay:10.37,2013-03-06 12:05:00,
2013-03-06 13:10:00,54.3,37.1,29.97,North,1,0.0,0.0,52,0.00,CLR,SKC,0.00,WeatherDisplay:10.37,2013-03-06 12:10:00,
2013-03-06 13:15:00,54.3,37.1,29.97,North,1,0.0,0.0,52,0.00,CLR,SKC,0.00,WeatherDisplay:10.37,2013-03-06 12:15:00,
2013-03-06 13:20:00,54.3,37.5,29.97,North,1,0.0,0.0,53,0.00,CLR,SKC,0.00,WeatherDisplay:10.37,2013-03-06 12:20:00,
2013-03-06 13:25:00,54.5,37.7,29.96,North,1,0.0,0.0,53,0.00,CLR,SKC,0.00,WeatherDisplay:10.37,2013-03-06 12:25:00,
2013-03-06 13:30:00,54.5,37.7,29.97,North,1,0.0,0.0,53,0.00,CLR,SKC,0.00,WeatherDisplay:10.37,2013-03-06 12:30:00,
2013-03-06 13:35:00,54.3,37.1,29.96,North,1,0.0,0.0,52,0.00,CLR,SKC,0.00,WeatherDisplay:10.37,2013-03-06 12:35:00,
2013-03-06 13:40:00,54.3,37.1,29.96,North,1,0.0,0.0,52,0.00,CLR,SKC,0.00,WeatherDisplay:10.37,2013-03-06 12:40:00,
2013-03-06 13:45:00,54.1,37.4,29.96,North,1,0.0,0.0,53,0.00,CLR,SKC,0.00,WeatherDisplay:10.37,2013-03-06 12:45:00,
2013-03-06 13:50:00,54.0,37.2,29.96,North,1,0.0,0.0,53,0.00,CLR,SKC,0.00,WeatherDisplay:10.37,2013-03-06 12:50:00,
2013-03-06 13:55:00,54.0,37.7,29.95,North,1,0.0,0.0,54,0.00,CLR,SKC,0.00,WeatherDisplay:10.37,2013-03-06 12:55:00,
2013-03-06 14:00:00,54.0,37.7,29.95,North,1,0.0,0.0,54,0.00,CLR,SKC,0.00,WeatherDisplay:10.37,2013-03-06 13:00:00,
2013-03-06 14:05:00,54.1,37.8,29.95,North,1,0.0,0.0,54,0.00,CLR,SKC,0.00,WeatherDisplay:10.37,2013-03-06 13:05:00,
2013-03-06 14:10:00,54.3,38.0,29.95,North,1,0.0,0.0,54,0.00,CLR,SKC,0.00,WeatherDisplay:10.37,2013-03-06 13:10:00,
2013-03-06 14:15:00,54.3,37.5,29.95,North,1,0.0,0.0,53,0.00,CLR,SKC,0.00,WeatherDisplay:10.37,2013-03-06 13:15:00,
2013-03-06 14:20:00,54.3,37.5,29.94,North,1,0.0,0.0,53,0.00,CLR,SKC,0.00,WeatherDisplay:10.37,2013-03-06 13:20:00,
2013-03-06 14:25:00,54.3,37.5,29.95,North,1,0.0,0.0,53,0.00,CLR,SKC,0.00,WeatherDisplay:10.37,2013-03-06 13:25:00,
2013-03-06 14:30:00,54.1,37.8,29.95,North,1,0.0,0.0,54,0.00,CLR,SKC,0.00,WeatherDisplay:10.37,2013-03-06 13:30:00,
2013-03-06 14:35:00,54.1,37.8,29.94,North,1,0.0,0.0,54,0.00,CLR,SKC,0.00,WeatherDisplay:10.37,2013-03-06 13:35:00,
2013-03-06 14:40:00,54.0,37.7,29.94,North,1,0.0,0.0,54,0.00,CLR,SKC,0.00,WeatherDisplay:10.37,2013-03-06 13:40:00,
2013-03-06 14:45:00,54.0,37.7,29.94,North,1,0.0,0.0,54,0.00,CLR,SKC,0.00,WeatherDisplay:10.37,2013-03-06 13:45:00,
2013-03-06 14:50:00,53.8,37.5,29.94,North,1,0.0,0.0,54,0.00,CLR,SKC,0.00,WeatherDisplay:10.37,2013-03-06 13:50:00,
2013-03-06 14:55:00,53.4,37.2,29.94,North,1,0.0,0.0,54,0.00,CLR,SKC,0.00,WeatherDisplay:10.37,2013-03-06 13:55:00,
2013-03-06 15:00:00,53.4,37.2,29.93,North,1,0.0,0.0,54,0.00,CLR,SKC,0.00,WeatherDisplay:10.37,2013-03-06 14:00:00,
2013-03-06 15:05:00,53.2,37.5,29.93,North,1,0.0,0.0,55,0.00,CLR,SKC,0.00,WeatherDisplay:10.37,2013-03-06 14:05:00,
2013-03-06 15:10:00,53.2,37.9,29.93,North,1,0.0,0.0,56,0.00,CLR,SKC,0.00,WeatherDisplay:10.37,2013-03-06 14:10:00,
2013-03-06 15:15:00,53.2,37.9,29.93,North,1,0.0,0.0,56,0.00,CLR,SKC,0.00,WeatherDisplay:10.37,2013-03-06 14:15:00,
2013-03-06 15:20:00,53.2,37.9,29.93,North,1,0.0,0.0,56,0.00,CLR,SKC,0.00,WeatherDisplay:10.37,2013-03-06 14:20:00,
2013-03-06 15:25:00,53.2,37.9,29.93,North,1,0.0,0.0,56,0.00,CLR,SKC,0.00,WeatherDisplay:10.37,2013-03-06 14:25:00,
2013-03-06 15:30:00,53.2,37.9,29.92,North,1,0.0,0.0,56,0.00,CLR,SKC,0.00,WeatherDisplay:10.37,2013-03-06 14:30:00,
2013-03-06 15:35:00,53.2,38.4,29.92,North,1,0.0,0.0,57,0.00,CLR,SKC,0.00,WeatherDisplay:10.37,2013-03-06 14:35:00,
2013-03-06 15:40:00,53.2,37.9,29.92,North,1,0.0,0.0,56,0.00,CLR,SKC,0.00,WeatherDisplay:10.37,2013-03-06 14:40:00,
2013-03-06 15:45:00,53.2,37.9,29.93,North,1,0.0,0.0,56,0.00,-RA,SKC,0.00,WeatherDisplay:10.37,2013-03-06 14:45:00,
2013-03-06 15:50:00,53.2,37.9,29.92,North,1,0.0,0.0,56,0.00,-RA,SKC,0.00,WeatherDisplay:10.37,2013-03-06 14:50:00,
2013-03-06 15:55:00,53.2,37.9,29.92,North,1,0.0,0.0,56,0.00,-RA,SKC,0.00,WeatherDisplay:10.37,2013-03-06 14:55:00,
2013-03-06 16:00:00,53.1,38.2,29.92,North,1,0.0,0.0,57,0.00,-RA,SKC,0.00,WeatherDisplay:10.37,2013-03-06 15:00:00,
2013-03-06 16:05:00,52.9,38.1,29.91,North,1,0.0,0.0,57,0.00,-RA,SKC,0.00,WeatherDisplay:10.37,2013-03-06 15:05:00,
2013-03-06 16:10:00,52.9,38.1,29.91,North,1,0.0,0.0,57,0.00,-RA,SKC,0.00,WeatherDisplay:10.37,2013-03-06 15:10:00,
2013-03-06 16:15:00,52.9,38.1,29.91,North,1,0.0,0.0,57,0.00,BKN,SKC,0.00,WeatherDisplay:10.37,2013-03-06 15:15:00,
2013-03-06 16:20:00,52.7,37.9,29.91,North,1,0.0,0.0,57,0.00,BKN,SKC,0.00,WeatherDisplay:10.37,2013-03-06 15:20:00,
2013-03-06 16:25:00,52.7,37.9,29.91,North,1,0.0,0.0,57,0.00,BKN,SKC,0.00,WeatherDisplay:10.37,2013-03-06 15:25:00,
2013-03-06 16:30:00,52.5,38.2,29.91,North,1,0.0,0.0,58,0.00,BKN,SKC,0.00,WeatherDisplay:10.37,2013-03-06 15:30:00,
2013-03-06 16:35:00,52.5,38.2,29.91,North,1,0.0,0.0,58,0.00,BKN,SKC,0.00,WeatherDisplay:10.37,2013-03-06 15:35:00,
2013-03-06 16:40:00,52.5,38.2,29.91,North,1,0.0,0.0,58,0.00,BKN,SKC,0.00,WeatherDisplay:10.37,2013-03-06 15:40:00,
2013-03-06 16:45:00,52.5,38.2,29.90,North,1,0.0,0.0,58,0.00,BKN,SKC,0.00,WeatherDisplay:10.37,2013-03-06 15:45:00,
2013-03-06 16:50:00,52.5,38.2,29.90,North,1,0.0,0.0,58,0.00,BKN,SKC,0.00,WeatherDisplay:10.37,2013-03-06 15:50:00,
2013-03-06 16:55:00,52.3,38.0,29.89,North,1,0.0,0.0,58,0.00,BKN,SKC,0.00,WeatherDisplay:10.37,2013-03-06 15:55:00,
2013-03-06 17:00:00,52.3,38.4,29.89,North,1,0.0,0.0,59,0.00,BKN,SKC,0.00,WeatherDisplay:10.37,2013-03-06 16:00:00,
2013-03-06 17:05:00,52.3,38.4,29.88,North,1,0.0,0.0,59,0.00,BKN,SKC,0.00,WeatherDisplay:10.37,2013-03-06 16:05:00,
2013-03-06 17:10:00,52.0,38.5,29.88,North,1,0.0,0.0,60,0.00,BKN,SKC,0.00,WeatherDisplay:10.37,2013-03-06 16:10:00,
2013-03-06 17:15:00,52.0,38.5,29.88,North,1,0.0,0.0,60,0.00,BKN,SKC,0.00,WeatherDisplay:10.37,2013-03-06 16:15:00,
2013-03-06 17:20:00,52.0,38.5,29.88,North,1,0.0,0.0,60,0.00,BKN,SKC,0.00,WeatherDisplay:10.37,2013-03-06 16:20:00,
2013-03-06 17:25:00,51.8,38.8,29.88,North,1,0.0,0.0,61,0.00,BKN,SKC,0.00,WeatherDisplay:10.37,2013-03-06 16:25:00,
2013-03-06 17:30:00,51.6,38.6,29.88,North,1,0.0,0.0,61,0.00,BKN,SKC,0.00,WeatherDisplay:10.37,2013-03-06 16:30:00,
2013-03-06 17:35:00,51.6,38.6,29.88,North,1,0.0,0.0,61,0.00,BKN,SKC,0.00,WeatherDisplay:10.37,2013-03-06 16:35:00,
2013-03-06 17:40:00,51.4,38.8,29.88,North,1,0.0,0.0,62,0.00,BKN,SKC,0.00,WeatherDisplay:10.37,2013-03-06 16:40:00,
2013-03-06 17:45:00,51.1,38.5,29.89,North,1,0.0,0.0,62,0.00,BKN,SKC,0.00,WeatherDisplay:10.37,2013-03-06 16:45:00,
2013-03-06 17:50:00,51.1,38.5,29.88,North,1,0.0,0.0,62,0.00,BKN,SKC,0.00,WeatherDisplay:10.37,2013-03-06 16:50:00,
2013-03-06 17:55:00,51.1,38.5,29.89,North,1,0.0,0.0,62,0.00,BKN,SKC,0.00,WeatherDisplay:10.37,2013-03-06 16:55:00,
2013-03-06 18:00:00,50.9,38.7,29.89,North,1,0.0,0.0,63,0.00,BKN,SKC,0.00,WeatherDisplay:10.37,2013-03-06 17:00:00,
2013-03-06 18:05:00,50.9,38.7,29.89,North,1,0.0,0.0,63,0.00,BKN,SKC,0.00,WeatherDisplay:10.37,2013-03-06 17:05:00,
2013-03-06 18:10:00,50.9,38.7,29.89,North,1,0.0,0.0,63,0.00,BKN,SKC,0.00,WeatherDisplay:10.37,2013-03-06 17:10:00,
2013-03-06 18:15:00,50.7,39.0,29.89,North,1,0.0,0.0,64,0.00,CLR,SKC,0.00,WeatherDisplay:10.37,2013-03-06 17:15:00,
2013-03-06 18:20:00,50.7,39.0,29.89,North,1,0.0,0.0,64,0.00,CLR,SKC,0.00,WeatherDisplay:10.37,2013-03-06 17:20:00,
2013-03-06 18:25:00,50.7,39.0,29.88,North,1,0.0,0.0,64,0.00,CLR,SKC,0.00,WeatherDisplay:10.37,2013-03-06 17:25:00,
2013-03-06 18:30:00,50.7,39.0,29.89,North,1,0.0,0.0,64,0.00,CLR,SKC,0.00,WeatherDisplay:10.37,2013-03-06 17:30:00,
2013-03-06 18:35:00,50.7,39.4,29.89,North,1,0.0,0.0,65,0.00,CLR,SKC,0.00,WeatherDisplay:10.37,2013-03-06 17:35:00,
2013-03-06 18:40:00,50.7,39.0,29.88,North,1,0.0,0.0,64,0.00,CLR,SKC,0.00,WeatherDisplay:10.37,2013-03-06 17:40:00,
2013-03-06 18:45:00,50.7,39.0,29.88,North,1,0.0,0.0,64,0.00,OVC,SKC,0.00,WeatherDisplay:10.37,2013-03-06 17:45:00,
2013-03-06 18:50:00,50.7,39.4,29.88,North,1,0.0,0.0,65,0.00,OVC,SKC,0.00,WeatherDisplay:10.37,2013-03-06 17:50:00,
2013-03-06 18:55:00,50.9,39.1,29.88,North,1,0.0,0.0,64,0.00,OVC,SKC,0.00,WeatherDisplay:10.37,2013-03-06 17:55:00,
2013-03-06 19:00:00,50.9,39.1,29.88,North,1,0.0,0.0,64,0.00,OVC,SKC,0.00,WeatherDisplay:10.37,2013-03-06 18:00:00,
2013-03-06 19:05:00,51.1,39.3,29.87,North,1,0.0,0.0,64,0.00,OVC,SKC,0.00,WeatherDisplay:10.37,2013-03-06 18:05:00,
2013-03-06 19:10:00,51.1,39.3,29.88,North,1,0.0,0.0,64,0.00,OVC,SKC,0.00,WeatherDisplay:10.37,2013-03-06 18:10:00,
2013-03-06 19:15:00,51.1,39.3,29.88,North,1,0.0,0.0,64,0.00,BKN,SKC,0.00,WeatherDisplay:10.37,2013-03-06 18:15:00,
2013-03-06 19:20:00,51.1,39.3,29.88,North,1,0.0,0.0,64,0.00,BKN,SKC,0.00,WeatherDisplay:10.37,2013-03-06 18:20:00,
2013-03-06 19:25:00,51.1,39.7,29.88,North,1,0.0,0.0,65,0.00,BKN,SKC,0.00,WeatherDisplay:10.37,2013-03-06 18:25:00,
2013-03-06 19:30:00,50.9,39.5,29.87,North,1,0.0,0.0,65,0.00,BKN,SKC,0.00,WeatherDisplay:10.37,2013-03-06 18:30:00,
2013-03-06 19:35:00,50.9,39.5,29.87,North,1,0.0,0.0,65,0.00,BKN,SKC,0.00,WeatherDisplay:10.37,2013-03-06 18:35:00,
2013-03-06 19:40:00,50.7,39.8,29.87,North,1,0.0,0.0,66,0.00,BKN,SKC,0.00,WeatherDisplay:10.37,2013-03-06 18:40:00,
2013-03-06 19:45:00,50.7,39.8,29.87,North,1,0.0,0.0,66,0.00,BKN,SKC,0.00,WeatherDisplay:10.37,2013-03-06 18:45:00,
2013-03-06 19:50:00,50.7,39.8,29.87,North,1,0.0,0.0,66,0.00,BKN,SKC,0.00,WeatherDisplay:10.37,2013-03-06 18:50:00,
2013-03-06 19:55:00,50.7,39.8,29.87,North,1,0.0,0.0,66,0.00,CLR,SKC,0.00,WeatherDisplay:10.37,2013-03-06 18:55:00,
2013-03-06 20:00:00,50.7,39.8,29.88,North,1,0.0,0.0,66,0.00,CLR,SKC,0.00,WeatherDisplay:10.37,2013-03-06 19:00:00,
2013-03-06 20:05:00,50.7,39.8,29.87,North,1,0.0,0.0,66,0.00,CLR,SKC,0.00,WeatherDisplay:10.37,2013-03-06 19:05:00,
2013-03-06 20:10:00,50.7,39.8,29.87,North,1,0.0,0.0,66,0.00,CLR,SKC,0.00,WeatherDisplay:10.37,2013-03-06 19:10:00,
2013-03-06 20:15:00,50.9,39.9,29.86,North,1,0.0,0.0,66,0.00,CLR,SKC,0.00,WeatherDisplay:10.37,2013-03-06 19:15:00,
2013-03-06 20:20:00,51.3,40.3,29.86,North,1,0.0,0.0,66,0.00,CLR,SKC,0.00,WeatherDisplay:10.37,2013-03-06 19:20:00,
2013-03-06 20:25:00,51.4,40.5,29.87,North,1,0.0,0.0,66,0.00,CLR,SKC,0.00,WeatherDisplay:10.37,2013-03-06 19:25:00,
2013-03-06 20:32:00,51.6,40.2,29.87,North,1,0.0,0.0,65,0.00,CLR,SKC,0.00,WeatherDisplay:10.37,2013-03-06 19:32:00,
2013-03-06 20:37:00,51.6,40.2,29.87,North,1,0.0,0.0,65,0.00,CLR,SKC,0.00,WeatherDisplay:10.37,2013-03-06 19:37:00,
2013-03-06 20:42:00,51.6,40.6,29.87,North,1,0.0,0.0,66,0.00,CLR,SKC,0.00,WeatherDisplay:10.37,2013-03-06 19:42:00,
2013-03-06 20:47:00,51.6,40.6,29.87,North,1,0.0,0.0,66,0.00,CLR,SKC,0.00,WeatherDisplay:10.37,2013-03-06 19:47:00,
2013-03-06 20:52:00,51.4,40.5,29.86,North,1,0.0,0.0,66,0.00,CLR,SKC,0.00,WeatherDisplay:10.37,2013-03-06 19:52:00,
2013-03-06 20:57:00,51.4,40.5,29.87,North,1,0.0,0.0,66,0.00,CLR,SKC,0.00,WeatherDisplay:10.37,2013-03-06 19:57:00,
2013-03-06 21:02:00,51.4,40.5,29.86,North,1,0.0,0.0,66,0.00,CLR,SKC,0.00,WeatherDisplay:10.37,2013-03-06 20:02:00,
2013-03-06 21:07:00,51.4,40.5,29.86,North,1,0.0,0.0,66,0.00,CLR,SKC,0.00,WeatherDisplay:10.37,2013-03-06 20:07:00,
2013-03-06 21:12:00,51.3,40.3,29.86,North,1,0.0,0.0,66,0.00,CLR,SKC,0.00,WeatherDisplay:10.37,2013-03-06 20:12:00,
2013-03-06 21:17:00,51.1,40.1,29.86,North,1,0.0,0.0,66,0.00,CLR,SKC,0.00,WeatherDisplay:10.37,2013-03-06 20:17:00,
2013-03-06 21:22:00,50.9,39.9,29.86,North,1,0.0,0.0,66,0.00,CLR,SKC,0.00,WeatherDisplay:10.37,2013-03-06 20:22:00,
2013-03-06 21:27:00,50.7,39.8,29.87,North,1,0.0,0.0,66,0.00,CLR,SKC,0.00,WeatherDisplay:10.37,2013-03-06 20:27:00,
2013-03-06 21:32:00,50.7,39.8,29.86,North,1,0.0,0.0,66,0.00,CLR,SKC,0.00,WeatherDisplay:10.37,2013-03-06 20:32:00,
2013-03-06 21:37:00,50.7,40.2,29.86,North,1,0.0,0.0,67,0.00,CLR,SKC,0.00,WeatherDisplay:10.37,2013-03-06 20:37:00,
2013-03-06 21:42:00,50.7,39.8,29.86,North,1,0.0,0.0,66,0.00,CLR,SKC,0.00,WeatherDisplay:10.37,2013-03-06 20:42:00,
2013-03-06 21:47:00,50.7,39.8,29.86,North,1,0.0,0.0,66,0.00,CLR,SKC,0.00,WeatherDisplay:10.37,2013-03-06 20:47:00,
2013-03-06 21:52:00,50.7,39.8,29.86,North,1,0.0,0.0,66,0.00,CLR,SKC,0.00,WeatherDisplay:10.37,2013-03-06 20:52:00,
2013-03-06 21:57:00,50.5,40.0,29.85,North,1,0.0,0.0,67,0.00,CLR,SKC,0.00,WeatherDisplay:10.37,2013-03-06 20:57:00,
2013-03-06 22:02:00,50.2,39.6,29.85,North,1,0.0,0.0,67,0.00,CLR,SKC,0.00,WeatherDisplay:10.37,2013-03-06 21:02:00,
2013-03-06 22:07:00,50.0,39.5,29.85,North,1,0.0,0.0,67,0.00,CLR,SKC,0.00,WeatherDisplay:10.37,2013-03-06 21:07:00,
2013-03-06 22:12:00,49.8,39.7,29.85,North,1,0.0,0.0,68,0.00,CLR,SKC,0.00,WeatherDisplay:10.37,2013-03-06 21:12:00,
2013-03-06 22:17:00,49.6,39.5,29.85,North,1,0.0,0.0,68,0.00,CLR,SKC,0.00,WeatherDisplay:10.37,2013-03-06 21:17:00,
2013-03-06 22:22:00,49.6,39.5,29.85,North,1,0.0,0.0,68,0.00,CLR,SKC,0.00,WeatherDisplay:10.37,2013-03-06 21:22:00,
2013-03-06 22:27:00,49.6,39.5,29.85,North,1,0.0,0.0,68,0.00,CLR,SKC,0.00,WeatherDisplay:10.37,2013-03-06 21:27:00,
2013-03-06 22:32:00,49.6,39.5,29.85,North,1,0.0,0.0,68,0.00,CLR,SKC,0.00,WeatherDisplay:10.37,2013-03-06 21:32:00,
2013-03-06 22:37:00,49.6,39.9,29.85,North,1,0.0,0.0,69,0.00,CLR,SKC,0.00,WeatherDisplay:10.37,2013-03-06 21:37:00,
2013-03-06 22:42:00,49.6,39.9,29.84,North,1,0.0,0.0,69,0.00,CLR,SKC,0.00,WeatherDisplay:10.37,2013-03-06 21:42:00,
2013-03-06 22:47:00,49.6,39.9,29.84,North,1,0.0,0.0,69,0.00,CLR,SKC,0.00,WeatherDisplay:10.37,2013-03-06 21:47:00,
2013-03-06 22:52:00,49.6,39.9,29.85,North,1,0.0,0.0,69,0.00,CLR,SKC,0.00,WeatherDisplay:10.37,2013-03-06 21:52:00,
2013-03-06 22:57:00,49.3,39.5,29.84,North,1,0.0,0.0,69,0.00,CLR,SKC,0.00,WeatherDisplay:10.37,2013-03-06 21:57:00,
2013-03-06 23:02:00,49.3,39.5,29.84,North,1,0.0,0.0,69,0.00,CLR,SKC,0.00,WeatherDisplay:10.37,2013-03-06 22:02:00,
2013-03-06 23:07:00,49.3,39.5,29.84,North,1,0.0,0.0,69,0.00,CLR,SKC,0.00,WeatherDisplay:10.37,2013-03-06 22:07:00,
2013-03-06 23:12:00,49.1,39.7,29.84,North,1,0.0,0.0,70,0.00,CLR,SKC,0.00,WeatherDisplay:10.37,2013-03-06 22:12:00,
2013-03-06 23:17:00,49.1,39.7,29.84,North,1,0.0,0.0,70,0.00,CLR,SKC,0.00,WeatherDisplay:10.37,2013-03-06 22:17:00,
2013-03-06 23:22:00,49.1,39.7,29.84,North,1,0.0,0.0,70,0.00,CLR,SKC,0.00,WeatherDisplay:10.37,2013-03-06 22:22:00,
2013-03-06 23:27:00,49.1,39.7,29.84,North,1,0.0,0.0,70,0.00,CLR,SKC,0.00,WeatherDisplay:10.37,2013-03-06 22:27:00,
2013-03-06 23:32:00,49.1,39.7,29.84,North,1,0.0,0.0,70,0.00,CLR,SKC,0.00,WeatherDisplay:10.37,2013-03-06 22:32:00,
2013-03-06 23:37:00,48.9,39.6,29.84,North,1,0.0,0.0,70,0.00,CLR,SKC,0.00,WeatherDisplay:10.37,2013-03-06 22:37:00,
2013-03-06 23:42:00,48.9,39.6,29.84,North,1,0.0,0.0,70,0.00,CLR,SKC,0.00,WeatherDisplay:10.37,2013-03-06 22:42:00,
2013-03-06 23:47:00,48.9,39.6,29.84,North,1,0.0,0.0,70,0.00,CLR,SKC,0.00,WeatherDisplay:10.37,2013-03-06 22:47:00,
2013-03-06 23:52:00,48.7,39.4,29.83,North,1,0.0,0.0,70,0.00,CLR,SKC,0.00,WeatherDisplay:10.37,2013-03-06 22:52:00,
2013-03-06 23:57:00,48.7,39.4,29.83,North,1,0.0,0.0,70,0.00,CLR,SKC,0.00,WeatherDisplay:10.37,2013-03-06 22:57:00,